Location: Antichan
(42.9728°N, 0.6667°E)
Time: 09:36:02
(UTC+00:00)

USA 276 - Pass Details

Date: 15 August 2020
Orbit: 386 x 395 km, 50.0° (Epoch: 07 September)

Event Time Altitude Azimuth Distance (km) Brightness Sun altitude
Rises 20:23:33 0° 300° (WNW) 2,271 7.9 -14.5°
Reaches altitude 10° 20:25:44 10° 310° (NW) 1,415 6.3 -14.9°
Maximum altitude 20:28:41 34° 18° (NNE) 656 3.4 -15.3°
Enters shadow 20:30:08 22° 69° (ENE) 903 3.6 -15.5°
